Regional Weather Roundup
Issued by NWS Wakefield, VA

Home | Current Version | Previous Version | Graphics & Text | Print | Product List | Glossary On
Versions: 1 2 3 4 5 6 7 8 9 10 11 12 13 14 15 16 17 18 19 20 21 22 23 24 25 26 27
000
ASUS41 KAKQ 171315
RWRAKQ

REGIONAL WEATHER ROUNDUP
NATIONAL WEATHER SERVICE WAKEFIELD VA
800 AM EST TUE JAN 17 2017

Note: "fair" indicates few or no clouds below 12,000 feet with no
significant weather and/or obstructions to visibility. * = Denotes
station may not report precipitation (e.g., rain,snow,etc.),
thunder or fog.

VAZ042-051-052>054-056-171400-
NORTHERN VIRGINIA

CITY           SKY/WX    TMP DP  RH WIND       PRES   REMARKS
WASH NATIONAL  CLOUDY    42  40  92 S3        30.20S
DULLES         CLOUDY    40  38  93 SE5       30.18S
FORT BELVOIR   CLOUDY    40  39  95 CALM      30.19S
QUANTICO       CLOUDY    42  41  96 CALM      30.21S
FREDERICKSBRG* CLOUDY    43  43 100 CALM      30.19R
STAFFORD*      CLOUDY    41  41 100 CALM      30.23S
WARRENTON      CLOUDY    41  38  90 CALM      30.17S FOG
CULPEPER*      MIX PCPN  41  41 100 CALM      30.19S
MANASSAS*      CLOUDY   N/A N/A N/A CALM        N/A
LEESBURG*      CLOUDY    43  43 100 MISG      30.19S
WINCHESTER     DRIZZLE   36  36 100 CALM      30.16R
FRONT ROYAL*   CLOUDY    39  39 100 CALM      30.15R
LURAY*         LGT RAIN  43  43 100 CALM      30.15S
$$

VAZ048-049-060>072-079>083-171400-
CENTRAL AND SOUTH CENTRAL VIRGINIA

CITY           SKY/WX    TMP DP  RH WIND       PRES   REMARKS
RICHMOND       CLOUDY    43  42  97 S6        30.21S FOG
CHESTERFIELD*  FAIR      43  27  52 S7        30.22F
PETERSBURG*    CLOUDY    43  41  93 S3        30.22F FOG
HANOVER        CLOUDY    44  40  85 S7        30.21F
TAPPAHANNOCK*  CLOUDY    44  44 100 S5        30.21F FOG
QUINTON*       CLOUDY    43  43 100 MISG      30.22S FOG
CHARLOTTSVILLE LGT RAIN  42  39  89 SW5       30.16S
GORDONSVILLE*  CLOUDY    40  39  97 S3        30.17S
ORANGE*        LGT RAIN  41  41 100 CALM      30.19S
LOUISA*        CLOUDY    45  43  93 S3        30.17R
BUMPASS*       FAIR      41  41 100 CALM      30.18S
FARMVILLE*     CLOUDY    43  42  97 SW3       30.18S
CREWE*         FAIR      43  43 100 S3        30.19F
FORT PICKETT*  CLOUDY    45  41  88 S6        30.19F
CHASE CITY*    CLOUDY    46  45  95 CALM      30.21S
CLARKSVILLE*   CLOUDY    45  45 100 S3        30.22S
SOUTH HILL*    PTCLDY    46  44  95 S8        30.27F
LAWRENCEVILLE* CLOUDY    46  44  92 S3        30.22F
EMPORIA*       CLOUDY    45  41  87 SE3       30.26F
$$

VAZ088>098-171400-
SOUTHEAST VIRGINIA

CITY           SKY/WX    TMP DP  RH WIND       PRES   REMARKS
NORFOLK        CLOUDY    46  43  89 S8        30.25S FOG
VIRGINIA BEACH CLOUDY    45  41  86 SW6       30.26R
NORFOLK NAVAL  CLOUDY    46  43  89 VRB3      30.26F FOG
WEST POINT*    CLOUDY    44  43  97 S5        30.24F
SALUDA*        CLOUDY    42  42  98 S5        30.23S
NEWPORT NEWS   CLOUDY    45  43  93 S6        30.24F FOG
LANGLEY AFB    CLOUDY    45  44  94 S5        30.24S
FORT EUSTIS    CLOUDY    45  42  89 S6        30.22S FOG
WILLIAMSBURG*  CLOUDY    45  45 100 S7        30.25S
HR EXEC AP*    CLOUDY    45  39  81 S6        30.25S
FRANKLIN*      CLOUDY    45  41  85 S7        30.26F
US460-WAKEFLD  CLOUDY    45  43  93 S5        30.24S FOG
$$

VAZ020-022-025-037-045-171400-
WEST CENTRAL AND SOUTHWEST VIRGINIA

CITY           SKY/WX    TMP DP  RH WIND       PRES   REMARKS
STAUNTON*      LGT RAIN  45  42  92 CALM      30.17S
WAYNESBORO*    CLOUDY    43  42  95 CALM      30.16R
HOT SPRINGS VA LGT RAIN  48  48 100 W17       30.15R
LYNCHBURG      LGT RAIN  40  39  97 S6        30.20R
DANVILLE       MOCLDY    45  44  97 CALM      30.21S
SOUTH BOSTON*  PTSUNNY   46  45  96 SW3       30.22R
MARTINSVILLE   CLOUDY    48  46  90 SW3       30.22S FOG
ROANOKE        CLOUDY    42  42 100 CALM      30.21S
BLACKSBURG     LGT RAIN  45  45 100 CALM      30.21R
DUBLIN*        LGT RAIN  45  45 100 CALM      30.19S
MARION*        CLOUDY    46  44  95 CALM      30.20R FOG
HILLSVILLE*    CLOUDY    48  48 100 CALM      30.16S
RICHLANDS*     DRIZZLE  N/A N/A N/A S3        30.15R
WISE*          RAIN      52  52 100 S12G17    30.13F
ABINGDON*      CLOUDY    53  50  90 CALM      30.14S
$$

MDZ021>025-VAZ099-100-171400-
SOUTHERN MARYLAND AND THE DELMARVA PENINSULA

CITY           SKY/WX    TMP DP  RH WIND       PRES   REMARKS
PATUXENT RIVER CLOUDY    42  39  89 SE3       30.21S
BAY BRIDGE APT CLOUDY    39  37  93 SE6       30.21S FOG
LEONARDTOWN    CLOUDY    41  37  87 S3        30.21F
DOVER          CLOUDY    37  37 100 NE7       30.20F FOG
GEORGETOWN     PTCLDY    38  36  92 S5        30.23S FOG
EASTON         PTCLDY    41  37  87 SE3       30.24S FOG
CAMBRIDGE      CLOUDY    39  37  93 CALM      30.22R
SALISBURY      CLOUDY    41  38  89 S3        30.23R
OCEAN CITY     CLOUDY    43  39  86 SW3       30.25R
WALLOPS ISLAND CLOUDY    43  41  93 S3        30.25R
ACCOMACK*      CLOUDY    44  41  91 S3        30.25R
$$

NCZ012>017-030>032-171400-
NORTH CENTRAL AND EASTERN NORTH CAROLINA

CITY           SKY/WX    TMP DP  RH WIND       PRES   REMARKS
ROANOKE RAPIDS CLOUDY    46  43  87 S3        30.25F
RALEIGH        DRZL/FOG  48  48 100 SW7       30.25F VSB 1/8
ELIZABETH CITY CLOUDY    44  41  89 CALM      30.28R
AHOSKIE*         N/A     45  41  88 S3        30.27F
EDENTON*       CLOUDY    47  41  80 CALM      30.29R
CURRITUCK*     CLOUDY    44  44 100 CALM      30.27S
KILL DEVIL HLS NOT AVBL
MANTEO         CLOUDY    43  43 100 NE3       30.26F
CAPE HATTERAS  CLOUDY    49  45  86 N3        30.27R
TARBORO*       NOT AVBL
GOLDSBORO      CLOUDY    46  46 100 E3        30.25F
WASHINGTON       N/A     45  41  85 CALM      30.29R
GREENVILLE     CLOUDY    48  45  87 CALM      30.28S
NEW BERN       PTCLDY    44  42  93 CALM      30.28S
WILMINGTON     CLOUDY    50  48  93 CALM      30.27R
$$

VAZ048-171400-
ELSEWHERE

CITY           SKY/WX    TMP DP  RH WIND       PRES   REMARKS
HARRISBURG PA  CLOUDY    36  31  82 CALM      30.18F
BALTIMORE      CLOUDY    39  39 100 CALM      30.20R
ANNAPOLIS      CLOUDY    40  38  93 E6        30.21R FOG
ANDREWS AFB    CLOUDY    40  38  93 SE3       30.18S
PHILADELPHIA   CLOUDY    39  32  76 CALM      30.22S
HENDERSON NC   CLOUDY    44  42  93 S8        30.22F FOG
GREENSBORO     CLOUDY    48  48 100 S7        30.21S FOG
ROCKY MOUNT    CLOUDY    48  47  96 S6        30.26F
$$

VAZ100-171400-
MARINE

STATION/POSITION TIME  TEMP    WIND        PRES    WAVE   SWELL
                       AIR SEA DIR/SP/G            HT/PER HT/PER
                 (UTC) (F)     (DEG/KT/KT) (MB)    (FT/S) (FT/S)
CAPE MAY NJ      1248   41 39  150/  4/  6 1023.1S
LEWES DE         1236   41 41  190/  3/  4 1023.5R
OCEAN-CITY-INLET 1236   43 42  200/  3/  4 1024.2R
WACHAPREAGUE VA  1242   44 44  210/  5/  5 1024.1R
THOMAS POINT MD  1200   40 38  150/  7/  7   N/A
GOOSES REEF MD   1300   40     190/  8/ 10 1023.6    1/ 2
COVE POINT MD    1242   40     190/  7/  9 1023.6R
SOLOMONS ISLAND  1242   42 40  160/  4/  5   N/A
BISHOPS HEAD MD  1248   41 40  160/  8/  9 1023.6R
PINEY POINT MD   1242          170/  8/  9   N/A
POTOMAC MD       1300   42 40  200/  8/  8 1022.4
CAMBRIDGE MD     1248   41 39  160/  6/ 10 1022.3S
LEWISETTA VA     1242   43 42  200/  8/  9 1022.7F
RAPPAHANNOCK LGT 1242          180/  9/ 10 1024.7R
STINGRAY PT      1250   41     200/  8/ 10 1024.4R
YORK RVR RNG VA  1242   43     190/  8/  8 1023.5R
YORKTOWN VA      1242   44 42  200/  4/  7 1023.7F
JAMESTOWN VA     1300   44 43  140/  6/  6   N/A
DOMINION TERM VA 1242   44     190/  4/  5 1024.3F
KIPTOPEKE VA     1242      42  200/  4/  5   N/A
CHES BAY BRIDGE  1242   44 42  220/  4/  4 1024.5R
CAPE HENRY VA    1242   44     180/  3/  5   N/A
WILLOUBY STN VA  1242   44     220/  8/  8 1025.2R
S CRANEY ISL VA  1242   44     210/  5/  7 1024.3S
CAPE HENRY BUOY  1242      47                N/A     2/ 8
OFFSHORE WE BUOY 1251      49                N/A     2/ 9
64NM E OF VA BCH 1250   53 55  350/  6/  6 1024.0S   2/ 8   2/ 8
DUCK PIER NC     1242   44 44  280/  3/  3 1024.2F
44100 DUCK FRF   1235      46                N/A     2/10
44056 DUCK FRF   1230      44                N/A     2/10
OREGON INLET NC  1242   45 48  350/  2/  4 1024.6F
HATTERAS NC      1242   47 52  360/  3/  3 1024.5R
DIAMOND SHLS NC  1250   58 72   10/  8/ 10 1024.7R   2/10   2/10
CAPE LOOKOUT NC  1200   49      10/  5/  5 1024.0S
$$




USA.gov is the U.S. government's official web portal to all federal, state and local government web resources and services.